Regional Weather Roundup
Issued by NWS

Home | Current Version | Previous Version | Text Only | Print | Product List | Glossary On
Versions: 1 2 3 4 5 6 7 8 9 10 11 12 13 14 15 16 17 18 19 20 21 22 23 24 25 26 27 28 29 30 31 32 33 34 35 36 37 38 39 40 41 42 43 44 45 46 47 48 49 50
000
ASUS46 KSEW 301010
RWRWA

WASHINGTON REGIONAL WEATHER ROUNDUP
NATIONAL WEATHER SERVICE SEATTLE WA
300 AM PDT TUE SEP 30 2014

NOTE:"FAIR" INDICATES FEW OR NO CLOUDS BELOW 12,000 FEET WITH NO
SIGNIFICANT WEATHER AND/OR OBSTRUCTIONS TO VISIBILITY.

WAZ505-507>509-301100-
SEATTLE, TACOMA, EVERETT, AND VICINITY

CITY           SKY/WX    TMP DP  RH WIND       PRES   REMARKS
EVERETT        LGT RAIN  53  51  93 S6        30.01S
BOEING FIELD   MOCLDY    56  52  86 SE6       30.02R
RENTON         MOCLDY    56  54  93 SE3       30.02R
SEATAC AIRPORT CLOUDY    56  52  86 SE5       30.03R
JBLM-MCCHORD   CLEAR     50  50  99 SE5       30.03R
PUYALLUP       NOT AVBL
JBLM-FT LEWIS  DRIZZLE   49  49  99 SE8       30.02R
TACOMA NARROWS MOCLDY    53  50  89 CALM      30.02R
$$

WAZ001-503-506-510-514-515-301100-
NORTH INTERIOR

CITY           SKY/WX    TMP DP  RH WIND       PRES   REMARKS
BELLINGHAM     CLOUDY    56  51  84 VRB3      29.96R
FRIDAY HARBOR  PTCLDY    53  49  86 SW3       29.99R
EASTSOUND      PTCLDY    55  50  82 S5        29.95S
PORT ANGELES   PTCLDY    55  45  68 W7        30.00R
NAS WHIDBEY    PTCLDY    55  50  83 SW8       30.00R
BURLINGTON     MOCLDY    55  54  94 S3        30.00R
$$

WAZ020-022-039-040-504-511-512-301100-
SOUTHWEST INTERIOR

CITY           SKY/WX    TMP DP  RH WIND       PRES   REMARKS
SHELTON        PTCLDY    52  51  97 SW13      29.99R
OLYMPIA        PTCLDY    54  51  90 S10       30.03R
CHEHALIS       CLOUDY    54  54 100 S5        30.05S
KELSO          CLOUDY    55  52  88 SE3       30.11R
VANCOUVER      CLOUDY    56  53  90 N3        30.07R
SCAPPOOSE, OR  LGT RAIN  53  52  96 VRB3      30.07R
PORTLAND, OR   CLOUDY    57  54  89 W3        30.08R
$$

WAZ021-516-517-301100-
WASHINGTON COAST

CITY           SKY/WX    TMP DP  RH WIND       PRES   REMARKS
FORKS          CLOUDY    50  49  96 CALM      30.03R FOG
HOQUIAM        LGT RAIN  58  55  90 W7        30.05R
ASTORIA, OR    CLEAR     55  52  89 W7        30.06S
$$

WAZ019-023-024-040-518-519-301100-
CASCADE MOUNTAINS AND COLUMBIA GORGE

CITY           SKY/WX    TMP DP  RH WIND       PRES   REMARKS
STAMPEDE PASS  FOG       40  38  93 VRB7      29.99  VSB 1/2
TROUTDALE, OR  CLOUDY    57  53  86 CALM      30.06R
THE DALLES, OR PTCLDY    58  46  64 NW8       29.98R
$$

WAZ026-027-041>044-520-521-301100-
EAST SLOPES

CITY           SKY/WX    TMP DP  RH WIND       PRES   REMARKS
OMAK           PTCLDY    54  44  69 N9        29.78R
WENATCHEE      CLEAR     58  37  45 NW17      29.83S
ELLENSBURG     CLEAR     53  40  61 NW18G26   29.89S
YAKIMA         CLEAR     55  38  52 SE5       29.90R
$$

WAZ028-034-035-301100-
COLUMBIA BASIN

CITY           SKY/WX    TMP DP  RH WIND       PRES   REMARKS
EPHRATA        MOCLDY    60  36  40 E10G26    29.80R
MOSES LAKE     PTCLDY    60  38  43 W17G24    29.83R
PASCO          CLEAR     56  47  71 SW10      29.89R
HERMISTON, OR  CLEAR     58  43  57 W17G26    29.92R
$$

WAZ036>038-301100-
NORTHEAST WASHINGTON

CITY           SKY/WX    TMP DP  RH WIND       PRES   REMARKS
SPOKANE GEIGER CLOUDY    53  49  86 S17       29.78S
SPOKANE FELTS  CLOUDY    56  50  80 SW9       29.79R
FAIRCHILD AFB  CLOUDY    52  47  83 S14       29.78S
COEURDALENE,ID CLOUDY    55  50  82 SW12      29.78S
DEER PARK      CLOUDY    56  48  74 S13       29.76S
$$

WAZ029>033-301100-
SOUTHEAST WASHINGTON

CITY           SKY/WX    TMP DP  RH WIND       PRES   REMARKS
PULLMAN        LGT RAIN  53  50  89 SW14      29.87S
LEWISTON, ID   LGT RAIN  57  56  96 S5        29.85S
WALLA WALLA    CLOUDY    59  43  55 SW16G26   29.93R
PENDLETON, OR  PTCLDY    55  39  54 W17G25    29.94R
$$


USA.gov is the U.S. government's official web portal to all federal, state and local government web resources and services.